TimeMDT,TemperatureF,Dew PointF,Humidity,Sea Level PressureIn,VisibilityMPH,Wind Direction,Wind SpeedMPH,Gust SpeedMPH,PrecipitationIn,Events,Conditions,WindDirDegrees,DateUTC
12:55 AM,55.0,51.1,86,29.75,10.0,ENE,9.2,-,N/A,,Clear,70,2013-05-17 06:55:00
1:55 AM,53.1,50.0,89,29.77,10.0,NE,5.8,-,N/A,,Clear,50,2013-05-17 07:55:00
2:55 AM,51.1,48.9,92,29.77,10.0,ENE,4.6,-,N/A,,Clear,60,2013-05-17 08:55:00
3:55 AM,48.0,46.0,93,29.78,7.0,NNE,3.5,-,N/A,,Clear,30,2013-05-17 09:55:00
4:36 AM,48.2,46.4,93,29.80,1.8,Calm,Calm,-,N/A,,Clear,0,2013-05-17 10:36:00
4:47 AM,48.2,46.4,93,29.80,3.0,Calm,Calm,-,N/A,,Clear,0,2013-05-17 10:47:00
4:55 AM,48.0,46.9,96,29.78,5.0,Calm,Calm,-,N/A,,Clear,0,2013-05-17 10:55:00
5:08 AM,46.4,44.6,93,29.80,1.8,Calm,Calm,-,N/A,,Clear,0,2013-05-17 11:08:00
5:13 AM,46.4,46.4,100,29.81,0.5,Calm,Calm,-,N/A,Fog,Fog,0,2013-05-17 11:13:00
5:28 AM,44.6,44.6,100,29.81,1.2,WNW,4.6,-,N/A,,Scattered Clouds,300,2013-05-17 11:28:00
5:50 AM,46.9,45.0,93,29.80,3.0,Calm,Calm,-,N/A,,Scattered Clouds,0,2013-05-17 11:50:00
5:59 AM,46.4,46.4,100,29.83,3.0,Calm,Calm,-,N/A,,Mostly Cloudy,0,2013-05-17 11:59:00
6:53 AM,53.1,51.1,93,29.80,2.5,NNE,4.6,-,N/A,,Overcast,30,2013-05-17 12:53:00
7:02 AM,51.8,51.8,100,29.83,1.0,Calm,Calm,-,N/A,,Overcast,0,2013-05-17 13:02:00
7:11 AM,51.8,51.8,100,29.84,0.2,Calm,Calm,-,N/A,Fog,Fog,0,2013-05-17 13:11:00
7:48 AM,53.6,53.6,100,29.84,2.0,Calm,Calm,-,N/A,,Overcast,0,2013-05-17 13:48:00
7:55 AM,54.0,52.0,93,29.81,2.5,North,3.5,-,N/A,,Overcast,360,2013-05-17 13:55:00
8:13 AM,55.4,53.6,94,29.83,4.0,Calm,Calm,-,N/A,,Overcast,0,2013-05-17 14:13:00
8:50 AM,59.0,53.6,82,29.83,9.0,Calm,Calm,-,N/A,,Scattered Clouds,0,2013-05-17 14:50:00
8:55 AM,60.1,55.0,83,29.80,9.0,SE,4.6,-,N/A,,Partly Cloudy,130,2013-05-17 14:55:00
9:55 AM,66.0,55.9,70,29.80,10.0,East,4.6,-,N/A,,Clear,100,2013-05-17 15:55:00
10:55 AM,71.1,57.0,61,29.80,10.0,East,9.2,-,N/A,,Clear,90,2013-05-17 16:55:00
11:55 AM,73.0,57.0,57,29.78,10.0,East,9.2,-,N/A,,Clear,80,2013-05-17 17:55:00
12:55 PM,75.9,57.0,52,29.75,10.0,ESE,11.5,17.3,N/A,,Clear,110,2013-05-17 18:55:00
1:55 PM,79.0,57.9,48,29.74,10.0,ESE,9.2,-,N/A,,Clear,110,2013-05-17 19:55:00
2:55 PM,81.0,55.0,41,29.73,10.0,SE,10.4,18.4,N/A,,Clear,140,2013-05-17 20:55:00
3:55 PM,81.0,55.0,41,29.69,10.0,East,10.4,-,N/A,,Clear,100,2013-05-17 21:55:00
4:55 PM,81.0,51.1,35,29.66,10.0,East,18.4,-,N/A,,Clear,80,2013-05-17 22:55:00
5:55 PM,78.1,52.0,40,29.64,10.0,East,16.1,-,N/A,,Clear,80,2013-05-17 23:55:00
6:55 PM,71.1,60.1,68,29.67,9.0,SSE,26.5,34.5,0.00,Rain,Light Rain,160,2013-05-18 00:55:00
7:02 PM,66.2,59.0,78,29.70,7.0,SE,18.4,33.4,0.01,Rain,Rain,140,2013-05-18 01:02:00
7:17 PM,64.4,59.0,83,29.71,10.0,ENE,16.1,-,0.02,Rain,Light Rain,70,2013-05-18 01:17:00
7:55 PM,64.0,57.0,78,29.63,10.0,East,11.5,-,0.02,,Clear,90,2013-05-18 01:55:00
8:55 PM,66.0,53.1,63,29.69,10.0,SSE,6.9,-,N/A,,Clear,160,2013-05-18 02:55:00
9:55 PM,64.0,53.1,67,29.73,10.0,SE,8.1,-,N/A,,Clear,140,2013-05-18 03:55:00
10:55 PM,60.1,54.0,80,29.67,10.0,East,8.1,-,N/A,,Clear,80,2013-05-18 04:55:00
11:55 PM,60.1,54.0,80,29.66,10.0,ENE,8.1,-,N/A,,Clear,70,2013-05-18 05:55:00